SCP
-0 -0 -0 -0 -0 -0 -0 -0 -0 -0 -0 -0 -0 -0 -0 -0 -0 0 0 -0 -0 -0 -0 -0 -0 -0 0 0 0 0 0 0 0 0 -0 -0 -0 -0 -0 0 0 0 -0 -0 -0
-0 -0 -0 -0 -0 -0 -0 -0 -0 -0 -0 -0 -0 -0 -0 -0 0 0 0 -0 0 0 -0 -0 -0 -0 0 -0 0 0 0 0 0 0 -0 -0 0 -0 0 0 -0 0 0 -0 -0
-0 -0 -0 -0 -0 -0 -0 -0 -0 -0 -0 -0 -0 -0 -0 -0 -0 -0 -0 -0 0 -0 -0 -0 -0 0 0 0 0 0 0 0 -0 -0 -0 -0 -0 0 -0 -0 -0 -0 -0 -0 -0
-0 -0 -0 -0 -0 -0 -0 -0 -0 -0 -0 -0 0 0 0 -0 0 0 0 -0 0 -0 0 -0 -0 0 0 0 0 0 0 0 0 0 0 -0 -0 -0 0 0 -0 -0 -0 -0 -0
-0 -0 -0 -0 -0 -0 -0 -0 -0 -0 -0 -0 -0 -0 -0 -0 0 0 -0 -0 0 0 -0 -0 -0 -0 0 0 -0 0 0 0 -0 -0 0 -0 -0 0 0 -0 0 -0 -0 -0 -0
-0 -0 -0 -0 -0 -0 -0 -0 -0 -0 -0 -0 -0 0 0 0 0 0 0 0 0 -0 -0 -0 -0 -0 0 0 0 0 0 0 0 0 0 0 -0 -0 0 0 0 -0 -0 -0 -0
-0 -0 -0 -0 -0 -0 -0 -0 -0 -0 -0 -0 0 0 0 0 0 0 0 0 0 -0 -0 -0 0 -0 0 -0 0 0 0 0 -0 0 0 0 -0 -0 0 0 0 -0 -0 -0 -0
-0 -0 -0 -0 -0 -0 -0 -0 -0 -0 0 0 0 0 0 0 0 0 0 0 0 0 0 0 0 0 0 0 0 -0 0 0 0 0 0 0 -0 -0 -0 0 0 0 0 -0 -0
-0 -0 -0 -0 -0 -0 -0 -0 0 0 0 0 0 0 0 0 0 0 0 0 0 0 0 0 0 -0 0 -0 -0 -0 0 0 0 -0 -0 0 0 -0 -0 -0 0 0 0 0 0
0 0 0 -0 -0 -0 -0 -0 0 0 0 0 0 0 0 0 0 0 0 0 0 0 0 0 -0 -0 -0 -0 -0 -0 0 0 -0 -0 -0 0 0 0 -0 -0 -0 0 0 0 0
0 0 0 -0 -0 -0 0 0 0 0 0 0 0 0 0 0 0 0 0 0 0 0 0 0 -0 -0 -0 -0 0 0 0 0 0 0 -0 0 0 -0 0 -0 -0 -0 -0 -0 -0
0 0 0 0 -0 0 0 0 0 0 -0 0 0 -0 -0 0 0 0 0 0 0 0 0 0 -0 -0 0 0 -0 0 -0 -0 0 0 0 0 0 0 0 -0 -0 -0 -0 -0 -0
0 0 0 0 0 0 0 0 0 0 0 0 0 0 0 0 0 0 0 0 0 0 0 0 0 0 0 -0 -0 -0 -0 -0 0 0 0 0 0 0 0 -0 -0 -0 -0 -0 -0
0 0 0 0 0 0 0 0 0 0 0 0 0 0 0 0 0 -0 -0 0 0 0 0 0 0 0 0 0 -0 -0 -0 0 0 0 0 0 0 0 0 -0 -0 -0 -0 -0 -0
0 0 0 0 0 0 0 0 0 0 0 0 0 0 0 0 0 0 0 0 0 0 0 0 0 0 0 0 0 -0 0 0 0 0 0 0 0 0 0 -0 -0 -0 -0 -0 -0
0 0 0 -0 0 0 0 0 0 0 0 0 0 0 0 0 0 0 0 0 0 0 0 0 0 0 0 0 0 0 0 0 0 0 -0 -0 0 0 0 -0 -0 0 -0 -0 -0
0 0 0 0 0 0 0 0 0 0 0 0 0 0 0 0 0 0 0 0 0 0 0 0 0 0 0 0 0 0 0 0 0 0 0 0 -0 -0 0 0 0 0 -0 -0 -0
0 0 0 0 0 0 0 0 0 0 0 0 0 0 0 0 0 0 0 0 0 0 0 0 0 0 0 0 0 0 0 0 0 0 0 0 0 -0 0 0 0 0 0 0 -0
0 0 0 0 0 0 0 0 0 0 0 0 0 0 0 0 0 0 0 0 0 0 0 0 0 0 0 0 0 0 0 0 0 0 0 0 0 0 0 0 0 0 0 0 0
0 0 0 0 0 0 0 0 0 0 0 0 0 0 0 0 0 0 0 0 0 0 -0 0 0 0 0 0 0 0 0 0 0 0 0 0 0 0 0 0 0 0 0 0 -0
0 0 0 0 0 0 0 0 0 0 0 0 0 0 0 0 0 0 0 0 0 0 -0 -0 0 0 0 0 0 0 0 0 0 0 0 0 0 0 0 0 0 0 0 0 0
0 0 0 0 0 0 0 0 0 0 0 0 0 0 0 0 0 0 0 0 0 0 0 0 0 0 0 0 0 0 0 0 0 0 0 0 0 0 -0 0 0 0 0 0 0
0 0 0 0 0 0 0 0 0 0 0 0 0 0 0 0 0 0 0 0 0 0 0 0 0 0 0 0 0 0 0 0 0 0 0 0 0 0 0 0 0 0 0 0 0
0 0 0 0 0 0 0 0 0 0 0 0 0 0 0 0 0 0 0 0 0 0 0 0 0 0 0 0 0 0 0 0 0 0 0 0 0 0 0 0 0 0 0 0 0
0 0 0 0 0 0 0 0 0 0 0 0 0 0 0 0 0 0 0 0 0 0 0 0 0 0 0 0 0 0 0 0 0 0 0 0 0 0 0 0 0 0 0 0 0
0 0 0 0 0 0 0 0 0 0 0 0 0 0 0 0 0 0 0 0 0 0 0 0 0 0 0 0 0 0 0 0 0 0 0 0 0 0 0 0 0 0 0 0 0
0 0 0 0 0 0 0 0 0 0 0 0 0 0 0 0 0 0 0 0 0 0 0 0 0 0 0 0 0 0 0 0 0 0 0 0 0 0 0 0 0 0 0 0 0
Wind_Speed_500mb
28 28 28 28 28 31 34 34 32 30 30 31 32 33 34 35 36 40 35 20 19 20 22 23 24 21 25 19 13 8 13 8 11 9 22 30 18 16 14 26 15 18 21 44 50
31 31 29 29 29 30 32 35 36 34 32 32 31 33 35 38 38 39 36 33 29 30 35 37 32 31 22 20 14 18 12 9 11 4 26 35 24 28 20 26 20 19 25 50 53
33 34 34 32 31 31 31 32 36 38 35 33 34 32 34 37 35 11 15 22 20 32 29 32 26 31 29 20 23 20 18 7 6 4 23 36 26 24 19 24 29 30 39 55 54
34 34 35 37 37 34 33 32 33 36 38 37 34 34 33 28 11 8 10 24 29 17 32 40 38 36 29 27 26 20 21 14 2 12 24 36 31 24 22 9 26 31 44 56 53
40 39 37 37 39 40 38 36 36 35 36 38 36 34 34 20 35 30 36 21 9 28 43 47 51 46 34 26 21 25 20 16 15 16 21 30 31 20 25 16 25 35 47 55 52
42 42 43 42 40 39 41 44 39 36 35 35 37 34 28 33 21 21 13 15 13 31 41 50 40 49 24 26 25 4 9 12 11 21 23 27 28 25 27 24 29 40 48 53 52
43 46 47 47 46 43 42 43 46 40 37 34 33 34 29 44 23 32 38 22 21 30 39 53 40 42 30 25 19 16 17 9 16 28 20 28 24 26 29 31 29 39 45 51 52
40 40 42 45 48 49 45 43 43 42 37 32 27 23 21 23 27 27 23 24 19 28 38 40 48 38 29 16 22 26 25 23 22 29 19 31 26 31 33 38 34 38 46 52 51
48 48 42 41 41 44 44 43 42 39 34 27 14 12 18 17 14 13 21 22 20 19 27 36 40 38 39 31 29 28 28 29 22 30 15 31 10 33 37 38 35 39 46 50 49
47 51 49 46 44 41 35 37 36 32 23 16 17 12 22 13 18 6 15 28 24 28 34 37 34 27 32 34 36 36 35 27 28 30 24 32 12 13 35 40 39 42 45 49 51
53 53 47 46 47 41 25 20 13 11 14 24 10 23 10 9 15 10 22 28 27 40 31 48 36 42 47 45 41 33 30 29 28 27 32 31 28 24 24 36 40 44 48 50 53
51 57 56 46 41 22 26 11 5 11 28 39 55 56 48 23 21 29 32 32 36 37 37 31 43 43 41 43 47 38 38 32 25 16 30 29 30 27 26 37 43 47 50 52 51
50 54 55 49 36 14 20 6 8 21 18 24 30 28 28 48 48 48 47 46 37 41 42 37 36 41 42 43 47 44 42 36 28 23 31 22 29 30 35 38 40 48 52 55 57
56 53 58 50 13 31 5 10 25 20 12 13 16 16 20 20 20 54 63 49 34 45 41 42 35 43 38 48 45 47 44 36 35 30 27 31 24 27 34 35 36 51 56 59 62
54 47 54 47 41 21 15 18 18 2 13 17 17 18 23 25 5 23 62 60 41 37 39 39 42 40 48 46 48 47 37 35 34 35 36 32 20 26 9 29 39 52 62 64 64
55 47 49 47 41 20 6 9 3 13 18 13 18 25 20 28 16 12 50 60 45 40 33 44 33 38 45 42 45 42 26 30 33 35 38 42 32 30 27 31 36 39 59 66 66
53 52 42 47 18 29 20 8 13 20 9 18 20 28 22 19 26 25 42 51 42 42 41 44 40 32 36 45 47 45 37 24 30 30 32 39 36 32 18 26 31 29 51 61 63
53 51 46 37 35 29 18 15 29 9 37 5 13 25 27 21 18 33 38 47 53 45 30 38 42 51 33 52 52 56 50 30 48 31 30 40 34 38 38 48 48 25 29 50 65
58 45 37 30 28 23 28 30 21 34 23 32 25 26 34 24 13 32 40 48 54 50 49 40 51 50 42 38 51 52 52 50 46 39 34 36 30 44 30 35 39 37 35 39 59
57 41 27 19 19 23 22 50 44 32 20 28 44 30 36 36 26 26 33 37 49 56 45 24 28 42 46 40 49 52 44 47 40 50 43 41 42 26 38 42 38 32 36 45 51
31 22 12 19 17 26 29 45 46 62 37 34 40 35 28 22 30 31 24 21 39 48 50 45 28 34 42 54 49 42 36 42 45 43 38 35 36 31 29 25 26 26 36 38 43
20 12 10 7 19 26 30 36 24 36 61 43 37 41 39 35 30 29 27 22 27 33 48 49 29 31 38 40 52 49 48 51 35 49 38 43 36 39 44 38 45 44 34 31 31
21 27 16 14 15 24 30 30 31 45 46 47 54 41 41 41 40 38 31 24 18 22 35 38 30 29 38 37 32 47 56 55 52 42 53 42 38 26 19 20 33 30 33 27 27
16 9 17 19 32 22 31 28 39 43 45 45 45 49 45 43 38 22 34 29 31 35 19 12 39 47 34 44 40 47 45 55 55 43 43 51 41 45 44 37 36 33 37 37 29
18 11 3 12 12 13 24 29 33 33 36 36 45 44 45 44 45 45 38 27 20 21 16 29 30 28 41 44 38 47 56 57 57 61 54 48 56 45 45 37 43 45 44 38 33
16 13 10 32 32 29 25 28 31 31 31 33 33 39 40 41 40 36 39 37 36 28 35 28 26 34 42 46 49 53 53 60 62 59 57 65 62 45 59 69 55 61 52 49 42
15 20 22 22 15 14 23 23 12 20 23 36 32 22 22 17 18 20 24 24 27 28 31 29 28 22 31 34 32 46 52 53 56 64 57 56 50 51 56 45 59 58 58 52 51
Wind_Direction_500mb
328 325 324 321 319 318 316 315 314 312 310 312 315 316 317 311 303 301 294 255 259 234 231 194 182 192 185 222 222 251 247 151 116 183 128 154 152 159 131 144 165 154 149 157 158
327 325 324 320 316 315 314 311 310 309 308 305 307 312 315 317 310 293 276 265 234 216 197 184 183 180 199 215 208 233 282 57 38 351 146 164 170 160 173 160 163 150 140 155 160
327 325 322 319 318 316 312 311 308 305 305 303 301 305 311 319 317 249 111 73 206 198 198 195 197 195 224 217 211 210 268 114 111 125 152 166 172 165 170 177 175 167 158 162 166
326 322 320 318 317 315 312 308 305 302 301 300 299 299 302 310 285 178 214 308 300 225 199 203 205 208 223 219 214 240 226 267 316 169 184 167 161 173 173 124 173 174 170 167 172
332 326 321 317 316 315 311 306 304 300 298 297 296 297 298 275 257 268 275 278 259 203 206 203 207 209 228 228 214 238 263 264 256 203 186 171 170 157 174 146 165 169 171 176 179
327 322 321 318 318 315 312 308 303 298 295 292 292 292 284 263 268 262 228 269 258 210 207 207 216 213 252 237 224 252 261 272 235 184 173 185 168 171 175 167 166 173 177 182 185
328 326 325 323 322 318 314 309 303 300 293 288 285 284 264 254 260 259 266 258 239 215 212 210 211 203 224 220 221 202 227 203 198 168 170 191 177 207 161 174 170 183 186 186 190
327 322 324 324 323 320 318 309 305 302 295 286 280 270 259 267 255 251 243 235 225 208 211 214 206 227 234 204 189 213 235 215 157 171 162 193 188 196 170 174 179 183 187 190 193
331 326 324 323 320 319 319 313 308 302 295 288 278 224 268 261 228 197 208 196 194 189 188 186 200 216 203 210 208 206 223 217 153 195 163 197 229 169 180 184 181 186 187 193 195
334 330 327 327 326 325 321 314 308 300 284 273 239 243 235 211 171 226 183 173 166 167 166 186 198 204 214 209 214 202 226 188 193 190 192 197 184 158 189 198 192 192 193 197 202
332 330 327 328 330 333 326 335 315 261 247 240 277 251 159 159 199 212 180 167 175 176 186 190 202 209 205 213 227 224 208 213 207 160 203 208 217 174 194 212 212 201 201 204 207
328 329 326 330 334 339 339 339 339 313 296 260 254 253 246 235 241 208 178 184 181 191 198 184 215 209 216 214 228 239 219 219 195 170 216 206 224 228 199 213 216 213 208 211 211
325 324 324 330 336 350 342 175 17 333 266 274 238 242 231 211 221 211 194 202 196 202 195 208 206 219 213 214 220 224 230 219 200 188 221 242 230 226 217 214 219 220 218 214 214
327 325 325 330 5 337 351 258 308 332 273 192 204 198 170 173 218 217 204 203 206 211 197 222 213 208 207 223 213 223 224 236 210 190 221 206 242 207 217 209 214 217 215 217 215
324 324 319 324 316 320 268 288 306 269 280 120 151 162 170 196 85 187 199 203 209 210 201 203 211 199 214 213 213 229 220 224 236 212 235 179 243 253 184 224 218 217 215 216 217
318 320 315 317 315 311 228 315 269 226 242 183 160 183 180 205 200 146 191 208 220 213 212 227 203 217 222 213 221 221 241 225 229 225 232 229 208 236 213 227 235 226 217 214 212
314 313 307 298 283 281 268 264 222 235 108 193 195 188 205 173 192 177 186 195 201 201 204 215 194 207 216 211 211 208 206 204 218 222 235 214 233 230 246 216 237 242 211 214 213
315 311 305 286 279 260 218 217 234 235 218 153 209 198 220 179 211 194 189 199 210 210 203 207 212 208 193 214 200 213 213 220 214 221 223 238 230 230 237 264 265 254 245 202 210
322 322 303 286 257 210 199 220 222 230 230 234 193 216 212 205 250 198 209 209 205 214 223 204 227 193 212 214 218 203 219 227 241 225 242 224 211 245 246 253 258 245 219 211 207
331 319 287 254 237 185 218 234 230 255 255 225 229 215 223 203 202 205 200 215 216 214 224 213 230 216 199 211 218 229 210 220 231 236 224 238 233 217 225 230 235 226 221 218 213
337 305 263 293 185 203 230 228 232 244 246 247 235 234 230 220 220 213 228 199 212 201 220 227 220 203 209 208 206 209 231 219 232 225 241 230 233 215 241 236 238 231 218 228 218
327 287 311 186 238 228 241 244 272 249 229 241 256 254 239 235 226 222 221 227 192 223 208 217 209 234 214 208 220 215 215 217 224 225 235 249 245 226 220 228 247 249 256 242 235
300 288 270 228 258 247 246 251 249 255 236 230 233 236 235 241 235 242 216 239 247 228 206 203 224 214 232 204 215 230 219 222 220 236 224 226 233 227 196 233 250 239 248 255 244
289 294 236 220 258 277 288 289 270 253 252 249 239 231 230 234 228 229 224 231 235 230 278 311 225 218 220 221 211 207 232 234 233 229 236 242 240 226 224 234 244 237 249 258 244
259 263 259 285 277 310 297 290 287 283 264 242 242 241 220 224 222 222 238 212 191 156 200 214 237 229 239 260 246 228 214 222 235 239 238 237 238 229 239 224 241 252 254 257 242
282 291 289 286 279 279 268 257 274 274 272 266 237 233 236 228 231 227 224 223 240 225 229 211 236 240 247 241 244 248 240 225 223 234 241 242 247 236 226 244 244 248 250 249 243
252 270 266 278 255 273 277 277 287 342 285 264 296 319 277 267 286 296 288 280 264 243 221 212 224 211 235 221 241 239 240 241 235 225 231 235 238 234 240 233 234 238 239 242 238
Wind_Speed_850mb
28 28 28 28 28 31 34 34 32 30 30 31 32 33 34 35 36 40 35 20 19 20 22 23 24 21 25 19 13 8 13 8 11 9 22 30 18 16 14 26 15 18 21 44 50
31 31 29 29 29 30 32 35 36 34 32 32 31 33 35 38 38 39 36 33 29 30 35 37 32 31 22 20 14 18 12 9 11 4 26 35 24 28 20 26 20 19 25 50 53
33 34 34 32 31 31 31 32 36 38 35 33 34 32 34 37 35 11 15 22 20 32 29 32 26 31 29 20 23 20 18 7 6 4 23 36 26 24 19 24 29 30 39 55 54
34 34 35 37 37 34 33 32 33 36 38 37 34 34 33 28 11 8 10 24 29 17 32 40 38 36 29 27 26 20 21 14 2 12 24 36 31 24 22 9 26 31 44 56 53
40 39 37 37 39 40 38 36 36 35 36 38 36 34 34 20 35 30 36 21 9 28 43 47 51 46 34 26 21 25 20 16 15 16 21 30 31 20 25 16 25 35 47 55 52
42 42 43 42 40 39 41 44 39 36 35 35 37 34 28 33 21 21 13 15 13 31 41 50 40 49 24 26 25 4 9 12 11 21 23 27 28 25 27 24 29 40 48 53 52
43 46 47 47 46 43 42 43 46 40 37 34 33 34 29 44 23 32 38 22 21 30 39 53 40 42 30 25 19 16 17 9 16 28 20 28 24 26 29 31 29 39 45 51 52
40 40 42 45 48 49 45 43 43 42 37 32 27 23 21 23 27 27 23 24 19 28 38 40 48 38 29 16 22 26 25 23 22 29 19 31 26 31 33 38 34 38 46 52 51
48 48 42 41 41 44 44 43 42 39 34 27 14 12 18 17 14 13 21 22 20 19 27 36 40 38 39 31 29 28 28 29 22 30 15 31 10 33 37 38 35 39 46 50 49
47 51 49 46 44 41 35 37 36 32 23 16 17 12 22 13 18 6 15 28 24 28 34 37 34 27 32 34 36 36 35 27 28 30 24 32 12 13 35 40 39 42 45 49 51
53 53 47 46 47 41 25 20 13 11 14 24 10 23 10 9 15 10 22 28 27 40 31 48 36 42 47 45 41 33 30 29 28 27 32 31 28 24 24 36 40 44 48 50 53
51 57 56 46 41 22 26 11 5 11 28 39 55 56 48 23 21 29 32 32 36 37 37 31 43 43 41 43 47 38 38 32 25 16 30 29 30 27 26 37 43 47 50 52 51
50 54 55 49 36 14 20 6 8 21 18 24 30 28 28 48 48 48 47 46 37 41 42 37 36 41 42 43 47 44 42 36 28 23 31 22 29 30 35 38 40 48 52 55 57
56 53 58 50 13 31 5 10 25 20 12 13 16 16 20 20 20 54 63 49 34 45 41 42 35 43 38 48 45 47 44 36 35 30 27 31 24 27 34 35 36 51 56 59 62
54 47 54 47 41 21 15 18 18 2 13 17 17 18 23 25 5 23 62 60 41 37 39 39 42 40 48 46 48 47 37 35 34 35 36 32 20 26 9 29 39 52 62 64 64
55 47 49 47 41 20 6 9 3 13 18 13 18 25 20 28 16 12 50 60 45 40 33 44 33 38 45 42 45 42 26 30 33 35 38 42 32 30 27 31 36 39 59 66 66
53 52 42 47 18 29 20 8 13 20 9 18 20 28 22 19 26 25 42 51 42 42 41 44 40 32 36 45 47 45 37 24 30 30 32 39 36 32 18 26 31 29 51 61 63
53 51 46 37 35 29 18 15 29 9 37 5 13 25 27 21 18 33 38 47 53 45 30 38 42 51 33 52 52 56 50 30 48 31 30 40 34 38 38 48 48 25 29 50 65
58 45 37 30 28 23 28 30 21 34 23 32 25 26 34 24 13 32 40 48 54 50 49 40 51 50 42 38 51 52 52 50 46 39 34 36 30 44 30 35 39 37 35 39 59
57 41 27 19 19 23 22 50 44 32 20 28 44 30 36 36 26 26 33 37 49 56 45 24 28 42 46 40 49 52 44 47 40 50 43 41 42 26 38 42 38 32 36 45 51
31 22 12 19 17 26 29 45 46 62 37 34 40 35 28 22 30 31 24 21 39 48 50 45 28 34 42 54 49 42 36 42 45 43 38 35 36 31 29 25 26 26 36 38 43
20 12 10 7 19 26 30 36 24 36 61 43 37 41 39 35 30 29 27 22 27 33 48 49 29 31 38 40 52 49 48 51 35 49 38 43 36 39 44 38 45 44 34 31 31
21 27 16 14 15 24 30 30 31 45 46 47 54 41 41 41 40 38 31 24 18 22 35 38 30 29 38 37 32 47 56 55 52 42 53 42 38 26 19 20 33 30 33 27 27
16 9 17 19 32 22 31 28 39 43 45 45 45 49 45 43 38 22 34 29 31 35 19 12 39 47 34 44 40 47 45 55 55 43 43 51 41 45 44 37 36 33 37 37 29
18 11 3 12 12 13 24 29 33 33 36 36 45 44 45 44 45 45 38 27 20 21 16 29 30 28 41 44 38 47 56 57 57 61 54 48 56 45 45 37 43 45 44 38 33
16 13 10 32 32 29 25 28 31 31 31 33 33 39 40 41 40 36 39 37 36 28 35 28 26 34 42 46 49 53 53 60 62 59 57 65 62 45 59 69 55 61 52 49 42
15 20 22 22 15 14 23 23 12 20 23 36 32 22 22 17 18 20 24 24 27 28 31 29 28 22 31 34 32 46 52 53 56 64 57 56 50 51 56 45 59 58 58 52 51
Wind_Direction_850mb
328 325 324 321 319 318 316 315 314 312 310 312 315 316 317 311 303 301 294 255 259 234 231 194 182 192 185 222 222 251 247 151 116 183 128 154 152 159 131 144 165 154 149 157 158
327 325 324 320 316 315 314 311 310 309 308 305 307 312 315 317 310 293 276 265 234 216 197 184 183 180 199 215 208 233 282 57 38 351 146 164 170 160 173 160 163 150 140 155 160
327 325 322 319 318 316 312 311 308 305 305 303 301 305 311 319 317 249 111 73 206 198 198 195 197 195 224 217 211 210 268 114 111 125 152 166 172 165 170 177 175 167 158 162 166
326 322 320 318 317 315 312 308 305 302 301 300 299 299 302 310 285 178 214 308 300 225 199 203 205 208 223 219 214 240 226 267 316 169 184 167 161 173 173 124 173 174 170 167 172
332 326 321 317 316 315 311 306 304 300 298 297 296 297 298 275 257 268 275 278 259 203 206 203 207 209 228 228 214 238 263 264 256 203 186 171 170 157 174 146 165 169 171 176 179
327 322 321 318 318 315 312 308 303 298 295 292 292 292 284 263 268 262 228 269 258 210 207 207 216 213 252 237 224 252 261 272 235 184 173 185 168 171 175 167 166 173 177 182 185
328 326 325 323 322 318 314 309 303 300 293 288 285 284 264 254 260 259 266 258 239 215 212 210 211 203 224 220 221 202 227 203 198 168 170 191 177 207 161 174 170 183 186 186 190
327 322 324 324 323 320 318 309 305 302 295 286 280 270 259 267 255 251 243 235 225 208 211 214 206 227 234 204 189 213 235 215 157 171 162 193 188 196 170 174 179 183 187 190 193
331 326 324 323 320 319 319 313 308 302 295 288 278 224 268 261 228 197 208 196 194 189 188 186 200 216 203 210 208 206 223 217 153 195 163 197 229 169 180 184 181 186 187 193 195
334 330 327 327 326 325 321 314 308 300 284 273 239 243 235 211 171 226 183 173 166 167 166 186 198 204 214 209 214 202 226 188 193 190 192 197 184 158 189 198 192 192 193 197 202
332 330 327 328 330 333 326 335 315 261 247 240 277 251 159 159 199 212 180 167 175 176 186 190 202 209 205 213 227 224 208 213 207 160 203 208 217 174 194 212 212 201 201 204 207
328 329 326 330 334 339 339 339 339 313 296 260 254 253 246 235 241 208 178 184 181 191 198 184 215 209 216 214 228 239 219 219 195 170 216 206 224 228 199 213 216 213 208 211 211
325 324 324 330 336 350 342 175 17 333 266 274 238 242 231 211 221 211 194 202 196 202 195 208 206 219 213 214 220 224 230 219 200 188 221 242 230 226 217 214 219 220 218 214 214
327 325 325 330 5 337 351 258 308 332 273 192 204 198 170 173 218 217 204 203 206 211 197 222 213 208 207 223 213 223 224 236 210 190 221 206 242 207 217 209 214 217 215 217 215
324 324 319 324 316 320 268 288 306 269 280 120 151 162 170 196 85 187 199 203 209 210 201 203 211 199 214 213 213 229 220 224 236 212 235 179 243 253 184 224 218 217 215 216 217
318 320 315 317 315 311 228 315 269 226 242 183 160 183 180 205 200 146 191 208 220 213 212 227 203 217 222 213 221 221 241 225 229 225 232 229 208 236 213 227 235 226 217 214 212
314 313 307 298 283 281 268 264 222 235 108 193 195 188 205 173 192 177 186 195 201 201 204 215 194 207 216 211 211 208 206 204 218 222 235 214 233 230 246 216 237 242 211 214 213
315 311 305 286 279 260 218 217 234 235 218 153 209 198 220 179 211 194 189 199 210 210 203 207 212 208 193 214 200 213 213 220 214 221 223 238 230 230 237 264 265 254 245 202 210
322 322 303 286 257 210 199 220 222 230 230 234 193 216 212 205 250 198 209 209 205 214 223 204 227 193 212 214 218 203 219 227 241 225 242 224 211 245 246 253 258 245 219 211 207
331 319 287 254 237 185 218 234 230 255 255 225 229 215 223 203 202 205 200 215 216 214 224 213 230 216 199 211 218 229 210 220 231 236 224 238 233 217 225 230 235 226 221 218 213
337 305 263 293 185 203 230 228 232 244 246 247 235 234 230 220 220 213 228 199 212 201 220 227 220 203 209 208 206 209 231 219 232 225 241 230 233 215 241 236 238 231 218 228 218
327 287 311 186 238 228 241 244 272 249 229 241 256 254 239 235 226 222 221 227 192 223 208 217 209 234 214 208 220 215 215 217 224 225 235 249 245 226 220 228 247 249 256 242 235
300 288 270 228 258 247 246 251 249 255 236 230 233 236 235 241 235 242 216 239 247 228 206 203 224 214 232 204 215 230 219 222 220 236 224 226 233 227 196 233 250 239 248 255 244
289 294 236 220 258 277 288 289 270 253 252 249 239 231 230 234 228 229 224 231 235 230 278 311 225 218 220 221 211 207 232 234 233 229 236 242 240 226 224 234 244 237 249 258 244
259 263 259 285 277 310 297 290 287 283 264 242 242 241 220 224 222 222 238 212 191 156 200 214 237 229 239 260 246 228 214 222 235 239 238 237 238 229 239 224 241 252 254 257 242
282 291 289 286 279 279 268 257 274 274 272 266 237 233 236 228 231 227 224 223 240 225 229 211 236 240 247 241 244 248 240 225 223 234 241 242 247 236 226 244 244 248 250 249 243
252 270 266 278 255 273 277 277 287 342 285 264 296 319 277 267 286 296 288 280 264 243 221 212 224 211 235 221 241 239 240 241 235 225 231 235 238 234 240 233 234 238 239 242 238